Time,TemperatureF,DewpointF,PressureIn,WindDirection,WindDirectionDegrees,WindSpeedMPH,WindSpeedGustMPH,Humidity,HourlyPrecipIn,Conditions,Clouds,dailyrainin,SoftwareType,DateUTC
2013-08-01 00:05:00,67.7,57.2,29.92,North,5,0.0,0.0,69,0.00,,---,0.00,VWS V14.00,2013-08-01 06:05:00,
2013-08-01 00:10:00,67.6,57.5,29.93,North,360,0.0,0.0,70,0.00,,---,0.00,VWS V14.00,2013-08-01 06:10:00,
2013-08-01 00:15:00,67.4,57.3,29.94,North,5,0.0,0.0,70,0.00,,---,0.00,VWS V14.00,2013-08-01 06:15:00,
2013-08-01 00:20:00,67.3,57.2,29.93,North,5,0.0,0.0,70,0.00,,---,0.00,VWS V14.00,2013-08-01 06:20:00,
2013-08-01 00:25:00,67.1,57.4,29.93,North,360,2.0,2.0,71,0.00,,---,0.00,VWS V14.00,2013-08-01 06:25:00,
2013-08-01 00:31:00,66.7,57.4,29.94,SW,229,2.0,4.0,72,0.00,,---,0.00,VWS V14.00,2013-08-01 06:31:00,
2013-08-01 00:36:00,66.7,57.4,29.94,South,190,0.0,4.0,72,0.00,,---,0.00,VWS V14.00,2013-08-01 06:36:00,
2013-08-01 00:41:00,66.7,57.4,29.94,SW,218,9.0,9.0,72,0.00,,---,0.00,VWS V14.00,2013-08-01 06:41:00,
2013-08-01 00:46:00,66.8,57.5,29.93,SSW,197,4.0,5.0,72,0.00,,---,0.00,VWS V14.00,2013-08-01 06:46:00,
2013-08-01 00:52:00,66.9,57.2,29.94,SSW,198,0.0,3.0,71,0.00,,---,0.00,VWS V14.00,2013-08-01 06:52:00,
2013-08-01 00:57:00,67.0,57.3,29.93,SSW,198,0.0,2.0,71,0.00,,---,0.00,VWS V14.00,2013-08-01 06:57:00,
2013-08-01 01:02:00,67.0,57.3,29.92,SSW,198,0.0,2.0,71,0.00,,---,0.00,VWS V14.00,2013-08-01 07:02:00,
2013-08-01 01:08:00,67.0,56.9,29.91,SSW,198,0.0,0.0,70,0.00,,---,0.00,VWS V14.00,2013-08-01 07:08:00,
2013-08-01 01:13:00,67.0,56.9,29.91,SSW,199,3.0,3.0,70,0.00,,---,0.00,VWS V14.00,2013-08-01 07:13:00,
2013-08-01 01:19:00,67.0,56.9,29.91,SSW,199,0.0,0.0,70,0.00,,---,0.00,VWS V14.00,2013-08-01 07:19:00,
2013-08-01 01:24:00,66.8,56.7,29.91,SSW,200,0.0,0.0,70,0.00,,---,0.00,VWS V14.00,2013-08-01 07:24:00,
2013-08-01 01:29:00,66.7,56.6,29.91,SSW,199,0.0,1.0,70,0.00,,---,0.00,VWS V14.00,2013-08-01 07:29:00,
2013-08-01 01:34:00,66.6,56.5,29.91,SSW,199,0.0,0.0,70,0.00,,---,0.00,VWS V14.00,2013-08-01 07:34:00,
2013-08-01 01:39:00,66.4,56.3,29.92,SSW,199,0.0,0.0,70,0.00,,---,0.00,VWS V14.00,2013-08-01 07:39:00,
2013-08-01 01:45:00,66.1,56.0,29.92,SSW,199,0.0,1.0,70,0.00,,---,0.00,VWS V14.00,2013-08-01 07:45:00,
2013-08-01 01:50:00,66.1,56.0,29.92,SSW,199,0.0,0.0,70,0.00,,---,0.00,VWS V14.00,2013-08-01 07:50:00,
2013-08-01 01:55:00,66.1,56.0,29.92,SSW,200,0.0,0.0,70,0.00,,---,0.00,VWS V14.00,2013-08-01 07:55:00,
2013-08-01 02:00:00,65.9,55.8,29.91,SSW,199,0.0,3.0,70,0.00,,---,0.00,VWS V14.00,2013-08-01 08:00:00,
2013-08-01 02:05:00,66.0,56.0,29.90,SSW,199,0.0,0.0,70,0.00,,---,0.00,VWS V14.00,2013-08-01 08:05:00,
2013-08-01 02:10:00,65.9,55.8,29.90,SSW,200,0.0,0.0,70,0.00,,---,0.00,VWS V14.00,2013-08-01 08:10:00,
2013-08-01 02:15:00,65.8,55.8,29.90,SSW,200,0.0,0.0,70,0.00,,---,0.00,VWS V14.00,2013-08-01 08:15:00,
2013-08-01 02:21:00,65.7,55.7,29.89,SSW,199,0.0,0.0,70,0.00,,---,0.00,VWS V14.00,2013-08-01 08:21:00,
2013-08-01 02:26:00,65.6,56.0,29.89,SSW,199,0.0,1.0,71,0.00,,---,0.00,VWS V14.00,2013-08-01 08:26:00,
2013-08-01 02:31:00,65.5,56.2,29.89,SSW,199,1.0,1.0,72,0.00,,---,0.00,VWS V14.00,2013-08-01 08:31:00,
2013-08-01 02:36:00,65.4,56.5,29.89,SSW,200,0.0,0.0,73,0.00,,---,0.00,VWS V14.00,2013-08-01 08:36:00,
2013-08-01 02:41:00,65.3,56.4,29.90,SSW,199,0.0,1.0,73,0.00,,---,0.00,VWS V14.00,2013-08-01 08:41:00,
2013-08-01 02:47:00,65.2,56.3,29.90,SSW,199,0.0,0.0,73,0.00,,---,0.00,VWS V14.00,2013-08-01 08:47:00,
2013-08-01 02:53:00,65.1,56.2,29.89,SSW,199,0.0,0.0,73,0.00,,---,0.00,VWS V14.00,2013-08-01 08:53:00,
2013-08-01 02:58:00,65.0,56.5,29.89,SSW,199,0.0,0.0,74,0.00,,---,0.00,VWS V14.00,2013-08-01 08:58:00,
2013-08-01 03:03:00,64.9,56.4,29.89,SSW,199,0.0,0.0,74,0.00,,---,0.00,VWS V14.00,2013-08-01 09:03:00,
2013-08-01 03:09:00,64.7,56.2,29.89,SSW,199,0.0,0.0,74,0.00,,---,0.00,VWS V14.00,2013-08-01 09:09:00,
2013-08-01 03:14:00,64.7,56.2,29.89,SSW,200,0.0,0.0,74,0.00,,---,0.00,VWS V14.00,2013-08-01 09:14:00,
2013-08-01 03:20:00,64.6,56.1,29.89,SSW,199,1.0,1.0,74,0.00,,---,0.00,VWS V14.00,2013-08-01 09:20:00,
2013-08-01 03:25:00,64.6,56.5,29.88,SSW,199,0.0,0.0,75,0.00,,---,0.00,VWS V14.00,2013-08-01 09:25:00,
2013-08-01 03:30:00,64.6,56.5,29.88,SSW,200,2.0,2.0,75,0.00,,---,0.00,VWS V14.00,2013-08-01 09:30:00,
2013-08-01 03:37:00,64.5,56.4,29.88,SSW,199,0.0,0.0,75,0.00,,---,0.00,VWS V14.00,2013-08-01 09:37:00,
2013-08-01 03:44:00,64.4,56.3,29.90,SSW,199,0.0,0.0,75,0.00,,---,0.00,VWS V14.00,2013-08-01 09:44:00,
2013-08-01 03:50:00,64.3,56.6,29.89,SSW,199,0.0,0.0,76,0.00,,---,0.00,VWS V14.00,2013-08-01 09:50:00,
2013-08-01 03:55:00,64.1,56.4,29.89,SSW,199,0.0,1.0,76,0.00,,---,0.00,VWS V14.00,2013-08-01 09:55:00,
2013-08-01 04:02:00,64.0,56.3,29.88,SSW,199,0.0,0.0,76,0.00,,---,0.00,VWS V14.00,2013-08-01 10:02:00,
2013-08-01 04:07:00,63.9,56.6,29.87,SSW,199,0.0,0.0,77,0.00,,---,0.00,VWS V14.00,2013-08-01 10:07:00,
2013-08-01 04:13:00,63.8,56.5,29.88,SSW,199,0.0,2.0,77,0.00,,---,0.00,VWS V14.00,2013-08-01 10:13:00,
2013-08-01 04:19:00,63.6,56.3,29.88,SSW,199,0.0,0.0,77,0.00,,---,0.00,VWS V14.00,2013-08-01 10:19:00,
2013-08-01 04:26:00,63.5,56.5,29.87,SSW,200,0.0,0.0,78,0.00,,---,0.00,VWS V14.00,2013-08-01 10:26:00,
2013-08-01 04:31:00,63.3,56.7,29.88,SSW,199,0.0,0.0,79,0.00,,---,0.00,VWS V14.00,2013-08-01 10:31:00,
2013-08-01 04:37:00,63.1,56.8,29.88,SSW,199,0.0,0.0,80,0.00,,---,0.00,VWS V14.00,2013-08-01 10:37:00,
2013-08-01 04:44:00,62.9,56.6,29.87,SSW,199,0.0,0.0,80,0.00,,---,0.00,VWS V14.00,2013-08-01 10:44:00,
2013-08-01 04:50:00,62.7,56.5,29.88,SSW,199,0.0,0.0,80,0.00,,---,0.00,VWS V14.00,2013-08-01 10:50:00,
2013-08-01 04:55:00,62.6,56.3,29.88,SSW,199,0.0,0.0,80,0.00,,---,0.00,VWS V14.00,2013-08-01 10:55:00,
2013-08-01 05:01:00,62.4,56.5,29.87,SSW,199,0.0,0.0,81,0.00,,---,0.00,VWS V14.00,2013-08-01 11:01:00,
2013-08-01 05:06:00,62.4,56.5,29.89,SSW,199,0.0,0.0,81,0.00,,---,0.00,VWS V14.00,2013-08-01 11:06:00,
2013-08-01 05:11:00,62.3,56.4,29.89,SSW,199,0.0,0.0,81,0.00,,---,0.00,VWS V14.00,2013-08-01 11:11:00,
2013-08-01 05:18:00,62.3,56.4,29.89,SSW,199,0.0,1.0,81,0.00,,---,0.00,VWS V14.00,2013-08-01 11:18:00,
2013-08-01 05:25:00,62.5,56.6,29.88,SSW,199,0.0,2.0,81,0.00,,---,0.00,VWS V14.00,2013-08-01 11:25:00,
2013-08-01 05:30:00,62.7,56.8,29.88,SSW,199,2.0,2.0,81,0.00,,---,0.00,VWS V14.00,2013-08-01 11:30:00,
2013-08-01 05:35:00,62.8,56.5,29.88,SSW,200,0.0,0.0,80,0.00,,---,0.00,VWS V14.00,2013-08-01 11:35:00,
2013-08-01 05:40:00,62.8,56.5,29.87,SSW,200,0.0,0.0,80,0.00,,---,0.00,VWS V14.00,2013-08-01 11:40:00,
2013-08-01 05:47:00,62.7,56.5,29.88,SSW,199,0.0,1.0,80,0.00,,---,0.00,VWS V14.00,2013-08-01 11:47:00,
2013-08-01 05:54:00,62.6,56.3,29.88,SSW,199,0.0,0.0,80,0.00,,---,0.00,VWS V14.00,2013-08-01 11:54:00,
2013-08-01 06:00:00,62.6,56.3,29.88,SSW,199,0.0,0.0,80,0.00,,---,0.00,VWS V14.00,2013-08-01 12:00:00,
2013-08-01 06:06:00,62.5,56.2,29.90,SSW,199,0.0,0.0,80,0.00,,---,0.00,VWS V14.00,2013-08-01 12:06:00,
2013-08-01 06:13:00,62.5,56.2,29.90,SSW,199,0.0,0.0,80,0.00,,---,0.00,VWS V14.00,2013-08-01 12:13:00,
2013-08-01 06:20:00,62.4,56.2,29.90,SSW,199,0.0,0.0,80,0.00,,---,0.00,VWS V14.00,2013-08-01 12:20:00,
2013-08-01 06:26:00,62.4,56.2,29.90,SSW,199,0.0,0.0,80,0.00,,---,0.00,VWS V14.00,2013-08-01 12:26:00,
2013-08-01 06:34:00,62.4,56.2,29.89,SSW,199,0.0,1.0,80,0.00,,---,0.00,VWS V14.00,2013-08-01 12:34:00,
2013-08-01 06:39:00,62.4,56.2,29.89,SSW,200,0.0,0.0,80,0.00,,---,0.00,VWS V14.00,2013-08-01 12:39:00,
2013-08-01 06:44:00,62.4,56.2,29.89,SSW,200,0.0,0.0,80,0.00,,---,0.00,VWS V14.00,2013-08-01 12:44:00,
2013-08-01 06:49:00,62.5,56.2,29.89,SSW,200,0.0,0.0,80,0.00,,---,0.00,VWS V14.00,2013-08-01 12:49:00,
2013-08-01 06:54:00,62.5,56.2,29.88,SSW,199,0.0,0.0,80,0.00,,---,0.00,VWS V14.00,2013-08-01 12:54:00,
2013-08-01 06:59:00,62.6,56.3,29.88,SSW,200,0.0,0.0,80,0.00,,---,0.00,VWS V14.00,2013-08-01 12:59:00,
2013-08-01 07:04:00,62.7,56.5,29.90,SSW,200,0.0,0.0,80,0.00,,---,0.00,VWS V14.00,2013-08-01 13:04:00,
2013-08-01 07:10:00,62.9,56.6,29.89,SSW,200,0.0,4.0,80,0.00,,---,0.00,VWS V14.00,2013-08-01 13:10:00,
2013-08-01 07:15:00,63.0,56.7,29.89,SSW,199,0.0,6.0,80,0.00,,---,0.00,VWS V14.00,2013-08-01 13:15:00,
2013-08-01 07:20:00,63.3,56.7,29.89,SSW,200,0.0,0.0,79,0.00,,---,0.00,VWS V14.00,2013-08-01 13:20:00,
2013-08-01 07:25:00,63.6,57.0,29.88,SSW,200,0.0,1.0,79,0.00,,---,0.00,VWS V14.00,2013-08-01 13:25:00,
2013-08-01 07:30:00,63.8,56.8,29.88,SSW,200,0.0,5.0,78,0.00,,---,0.00,VWS V14.00,2013-08-01 13:30:00,
2013-08-01 07:35:00,64.1,56.8,29.88,SSW,199,0.0,1.0,77,0.00,,---,0.00,VWS V14.00,2013-08-01 13:35:00,
2013-08-01 07:41:00,64.4,57.0,29.88,SSW,200,0.0,1.0,77,0.00,,---,0.00,VWS V14.00,2013-08-01 13:41:00,
2013-08-01 07:46:00,64.7,57.0,29.88,SSW,200,1.0,3.0,76,0.00,,---,0.00,VWS V14.00,2013-08-01 13:46:00,
2013-08-01 07:51:00,64.9,56.8,29.88,SSW,199,1.0,2.0,75,0.00,,---,0.00,VWS V14.00,2013-08-01 13:51:00,
2013-08-01 07:56:00,65.1,56.6,29.88,SSW,199,1.0,1.0,74,0.00,,---,0.00,VWS V14.00,2013-08-01 13:56:00,
2013-08-01 08:03:00,65.4,56.5,29.89,SSW,199,0.0,0.0,73,0.00,,---,0.00,VWS V14.00,2013-08-01 14:03:00,
2013-08-01 08:08:00,66.2,56.5,29.88,SSW,200,0.0,0.0,71,0.00,,---,0.00,VWS V14.00,2013-08-01 14:08:00,
2013-08-01 08:13:00,66.8,56.7,29.88,SSW,200,1.0,3.0,70,0.00,,---,0.00,VWS V14.00,2013-08-01 14:13:00,
2013-08-01 08:19:00,67.3,56.8,29.88,SSW,200,0.0,0.0,69,0.00,,---,0.00,VWS V14.00,2013-08-01 14:19:00,
2013-08-01 08:25:00,68.0,56.7,29.87,SSW,199,0.0,5.0,67,0.00,,---,0.00,VWS V14.00,2013-08-01 14:25:00,
2013-08-01 08:30:00,68.7,56.9,29.86,SSW,199,0.0,0.0,66,0.00,,---,0.00,VWS V14.00,2013-08-01 14:30:00,
2013-08-01 08:37:00,69.4,57.1,29.86,SSW,199,0.0,1.0,65,0.00,,---,0.00,VWS V14.00,2013-08-01 14:37:00,
2013-08-01 08:43:00,69.9,58.0,29.85,SSW,199,0.0,1.0,66,0.00,,---,0.00,VWS V14.00,2013-08-01 14:43:00,
2013-08-01 08:48:00,70.1,57.4,29.85,SSW,200,0.0,1.0,64,0.00,,---,0.00,VWS V14.00,2013-08-01 14:48:00,
2013-08-01 08:53:00,70.3,57.1,29.85,SSW,200,0.0,2.0,63,0.00,,---,0.00,VWS V14.00,2013-08-01 14:53:00,
2013-08-01 09:00:00,70.8,58.0,29.85,SSW,200,2.0,3.0,64,0.00,,---,0.00,VWS V14.00,2013-08-01 15:00:00,
2013-08-01 09:06:00,71.8,58.1,29.85,SSW,211,0.0,1.0,62,0.00,,---,0.00,VWS V14.00,2013-08-01 15:06:00,
2013-08-01 09:12:00,72.7,57.6,29.84,SW,218,0.0,4.0,59,0.00,,---,0.00,VWS V14.00,2013-08-01 15:12:00,
2013-08-01 09:19:00,73.4,57.7,29.84,SW,227,0.0,3.0,58,0.00,,---,0.00,VWS V14.00,2013-08-01 15:19:00,
2013-08-01 09:26:00,73.3,58.1,29.84,SW,226,0.0,1.0,59,0.00,,---,0.00,VWS V14.00,2013-08-01 15:26:00,
2013-08-01 09:31:00,73.4,57.7,29.84,SW,223,1.0,1.0,58,0.00,,---,0.00,VWS V14.00,2013-08-01 15:31:00,
2013-08-01 09:39:00,73.8,58.1,29.83,SSW,199,0.0,2.0,58,0.00,,---,0.00,VWS V14.00,2013-08-01 15:39:00,
2013-08-01 09:44:00,74.2,58.0,29.83,SSW,199,0.0,1.0,57,0.00,,---,0.00,VWS V14.00,2013-08-01 15:44:00,
2013-08-01 09:49:00,74.2,58.0,29.83,SSW,199,0.0,1.0,57,0.00,,---,0.00,VWS V14.00,2013-08-01 15:49:00,
2013-08-01 09:54:00,74.3,57.6,29.83,SSW,201,0.0,4.0,56,0.00,,---,0.00,VWS V14.00,2013-08-01 15:54:00,
2013-08-01 10:00:00,74.7,58.0,29.82,SSW,200,1.0,3.0,56,0.00,,---,0.00,VWS V14.00,2013-08-01 16:00:00,
2013-08-01 10:08:00,75.3,58.5,29.83,South,185,0.0,1.0,56,0.00,,---,0.00,VWS V14.00,2013-08-01 16:08:00,
2013-08-01 10:13:00,75.9,58.6,29.83,South,184,1.0,4.0,55,0.00,,---,0.00,VWS V14.00,2013-08-01 16:13:00,
2013-08-01 10:18:00,76.2,58.4,29.82,South,188,0.0,3.0,54,0.00,,---,0.00,VWS V14.00,2013-08-01 16:18:00,
2013-08-01 10:23:00,76.5,58.6,29.82,South,188,0.0,0.0,54,0.00,,---,0.00,VWS V14.00,2013-08-01 16:23:00,
2013-08-01 10:28:00,76.8,58.4,29.81,South,188,1.0,2.0,53,0.00,,---,0.00,VWS V14.00,2013-08-01 16:28:00,
2013-08-01 10:34:00,77.1,59.2,29.81,South,188,0.0,0.0,54,0.00,,---,0.00,VWS V14.00,2013-08-01 16:34:00,
2013-08-01 10:40:00,77.5,56.9,29.81,South,188,0.0,3.0,49,0.00,,---,0.00,VWS V14.00,2013-08-01 16:40:00,
2013-08-01 10:45:00,78.4,59.3,29.81,South,189,2.0,2.0,52,0.00,,---,0.00,VWS V14.00,2013-08-01 16:45:00,
2013-08-01 10:50:00,78.7,56.8,29.79,South,191,0.0,0.0,47,0.00,,---,0.00,VWS V14.00,2013-08-01 16:50:00,
2013-08-01 10:55:00,79.2,56.0,29.80,South,191,0.0,1.0,45,0.00,,---,0.00,VWS V14.00,2013-08-01 16:55:00,
2013-08-01 11:01:00,79.3,57.3,29.79,South,191,0.0,0.0,47,0.00,,---,0.00,VWS V14.00,2013-08-01 17:01:00,
2013-08-01 11:06:00,79.7,56.5,29.79,South,191,0.0,1.0,45,0.00,,---,0.00,VWS V14.00,2013-08-01 17:06:00,
2013-08-01 11:12:00,80.7,57.4,29.79,South,191,1.0,1.0,45,0.00,,---,0.00,VWS V14.00,2013-08-01 17:12:00,
2013-08-01 11:18:00,81.4,57.4,29.78,South,191,0.0,0.0,44,0.00,,---,0.00,VWS V14.00,2013-08-01 17:18:00,
2013-08-01 11:23:00,81.9,60.9,29.77,South,191,0.0,0.0,49,0.00,,---,0.00,VWS V14.00,2013-08-01 17:23:00,
2013-08-01 11:30:00,82.8,59.9,29.77,South,191,0.0,1.0,46,0.00,,---,0.00,VWS V14.00,2013-08-01 17:30:00,
2013-08-01 11:35:00,83.5,58.7,29.76,South,191,0.0,1.0,43,0.00,,---,0.00,VWS V14.00,2013-08-01 17:35:00,
2013-08-01 11:41:00,84.1,57.9,29.76,South,191,0.0,1.0,41,0.00,,---,0.00,VWS V14.00,2013-08-01 17:41:00,
2013-08-01 11:46:00,84.9,57.9,29.75,South,191,0.0,0.0,40,0.00,,---,0.00,VWS V14.00,2013-08-01 17:46:00,
2013-08-01 11:51:00,85.3,55.3,29.76,South,191,0.0,0.0,36,0.00,,---,0.00,VWS V14.00,2013-08-01 17:51:00,
2013-08-01 11:56:00,85.0,55.1,29.76,South,188,0.0,0.0,36,0.00,,---,0.00,VWS V14.00,2013-08-01 17:56:00,
2013-08-01 12:02:00,86.2,56.1,29.76,SSE,152,0.0,0.0,36,0.00,,---,0.00,VWS V14.00,2013-08-01 18:02:00,
2013-08-01 12:08:00,85.9,55.1,29.75,SSE,156,0.0,1.0,35,0.00,,---,0.00,VWS V14.00,2013-08-01 18:08:00,
2013-08-01 12:15:00,87.2,49.2,29.75,ESE,102,0.0,2.0,27,0.00,,---,0.00,VWS V14.00,2013-08-01 18:15:00,
2013-08-01 12:20:00,87.3,52.1,29.74,SE,141,0.0,0.0,30,0.00,,---,0.00,VWS V14.00,2013-08-01 18:20:00,
2013-08-01 12:25:00,87.7,52.5,29.73,SE,141,0.0,1.0,30,0.00,,---,0.00,VWS V14.00,2013-08-01 18:25:00,
2013-08-01 12:31:00,87.2,49.2,29.73,SE,141,0.0,0.0,27,0.00,,---,0.00,VWS V14.00,2013-08-01 18:31:00,
2013-08-01 12:40:00,88.3,47.0,29.73,SE,141,0.0,1.0,24,0.00,,---,0.00,VWS V14.00,2013-08-01 18:40:00,
2013-08-01 12:46:00,88.7,49.5,29.72,SE,140,0.0,1.0,26,0.00,,---,0.00,VWS V14.00,2013-08-01 18:46:00,
2013-08-01 12:52:00,88.4,47.1,29.73,SE,131,0.0,1.0,24,0.00,,---,0.00,VWS V14.00,2013-08-01 18:52:00,
2013-08-01 12:57:00,88.9,45.2,29.72,ESE,123,0.0,0.0,22,0.00,,---,0.00,VWS V14.00,2013-08-01 18:57:00,
2013-08-01 13:03:00,89.7,44.6,29.72,ESE,122,0.0,0.0,21,0.00,,---,0.00,VWS V14.00,2013-08-01 19:03:00,
2013-08-01 13:09:00,87.9,50.8,29.73,ESE,123,0.0,0.0,28,0.00,,---,0.00,VWS V14.00,2013-08-01 19:09:00,
2013-08-01 13:14:00,86.7,50.7,29.73,ESE,123,0.0,0.0,29,0.00,,---,0.00,VWS V14.00,2013-08-01 19:14:00,
2013-08-01 13:23:00,85.1,51.1,29.74,ESE,122,0.0,0.0,31,0.00,,---,0.00,VWS V14.00,2013-08-01 19:23:00,
2013-08-01 13:31:00,85.1,49.3,29.74,ESE,123,0.0,0.0,29,0.00,,---,0.00,VWS V14.00,2013-08-01 19:31:00,
2013-08-01 13:37:00,84.9,50.9,29.74,ESE,122,0.0,0.0,31,0.00,,---,0.00,VWS V14.00,2013-08-01 19:37:00,
2013-08-01 13:42:00,84.6,51.5,29.75,ESE,123,0.0,0.0,32,0.00,,---,0.00,VWS V14.00,2013-08-01 19:42:00,
2013-08-01 13:47:00,84.7,49.0,29.75,South,185,0.0,5.0,29,0.00,,---,0.00,VWS V14.00,2013-08-01 19:47:00,
2013-08-01 13:52:00,84.5,49.7,29.76,South,180,0.0,9.0,30,0.00,,---,0.00,VWS V14.00,2013-08-01 19:52:00,
2013-08-01 13:57:00,83.6,49.8,29.75,SSW,202,2.0,6.0,31,0.00,,---,0.00,VWS V14.00,2013-08-01 19:57:00,
2013-08-01 14:03:00,83.4,50.5,29.77,SSE,167,9.0,9.0,32,0.00,,---,0.00,VWS V14.00,2013-08-01 20:03:00,
2013-08-01 14:08:00,83.0,51.0,29.78,SW,234,3.0,3.0,33,0.00,,---,0.00,VWS V14.00,2013-08-01 20:08:00,
2013-08-01 14:13:00,82.7,49.0,29.78,South,177,13.0,18.0,31,0.00,,---,0.00,VWS V14.00,2013-08-01 20:13:00,
2013-08-01 14:18:00,82.1,51.0,29.79,SSE,167,5.0,12.0,34,0.00,,---,0.00,VWS V14.00,2013-08-01 20:18:00,
2013-08-01 14:25:00,81.4,48.7,29.79,South,186,5.0,18.0,32,0.00,,---,0.00,VWS V14.00,2013-08-01 20:25:00,
2013-08-01 14:30:00,81.4,50.4,29.79,SSW,192,6.0,11.0,34,0.00,,---,0.00,VWS V14.00,2013-08-01 20:30:00,
2013-08-01 14:36:00,81.4,49.6,29.78,SW,216,3.0,10.0,33,0.00,,---,0.00,VWS V14.00,2013-08-01 20:36:00,
2013-08-01 14:41:00,81.4,50.4,29.78,SW,229,2.0,8.0,34,0.00,,---,0.00,VWS V14.00,2013-08-01 20:41:00,
2013-08-01 14:42:00,81.4,50.4,29.78,South,189,11.0,11.0,34,0.00,,---,0.00,VWS V14.00,2013-08-01 20:42:00,
2013-08-01 14:47:00,81.3,50.3,29.77,SW,232,6.0,8.0,34,0.00,,---,0.00,VWS V14.00,2013-08-01 20:47:00,
2013-08-01 14:52:00,81.3,50.3,29.77,SSW,204,4.0,12.0,34,0.00,,---,0.00,VWS V14.00,2013-08-01 20:52:00,
2013-08-01 14:57:00,81.3,50.3,29.78,SSW,200,6.0,9.0,34,0.00,,---,0.00,VWS V14.00,2013-08-01 20:57:00,
2013-08-01 15:02:00,81.2,50.2,29.78,SW,219,0.0,10.0,34,0.00,,---,0.00,VWS V14.00,2013-08-01 21:02:00,
2013-08-01 15:07:00,81.1,50.9,29.77,SSW,203,5.0,5.0,35,0.00,,---,0.00,VWS V14.00,2013-08-01 21:07:00,
2013-08-01 15:12:00,80.9,51.5,29.77,SSW,206,0.0,5.0,36,0.00,,---,0.00,VWS V14.00,2013-08-01 21:12:00,
2013-08-01 15:17:00,80.8,52.1,29.77,SW,223,0.0,4.0,37,0.00,,---,0.00,VWS V14.00,2013-08-01 21:17:00,
2013-08-01 15:23:00,80.9,52.2,29.77,SSW,202,4.0,6.0,37,0.00,,---,0.00,VWS V14.00,2013-08-01 21:23:00,
2013-08-01 15:28:00,80.8,51.4,29.76,SW,214,2.0,5.0,36,0.00,,---,0.00,VWS V14.00,2013-08-01 21:28:00,
2013-08-01 15:33:00,80.9,52.2,29.77,SSW,198,2.0,5.0,37,0.00,,---,0.00,VWS V14.00,2013-08-01 21:33:00,
2013-08-01 15:38:00,80.9,51.5,29.77,SSW,203,0.0,3.0,36,0.00,,---,0.00,VWS V14.00,2013-08-01 21:38:00,
2013-08-01 15:43:00,81.0,51.6,29.76,SSW,202,5.0,19.0,36,0.00,,---,0.00,VWS V14.00,2013-08-01 21:43:00,
2013-08-01 15:48:00,81.1,50.9,29.76,SW,225,6.0,10.0,35,0.00,,---,0.00,VWS V14.00,2013-08-01 21:48:00,
2013-08-01 15:54:00,81.5,50.5,29.76,SW,236,0.0,9.0,34,0.00,,---,0.00,VWS V14.00,2013-08-01 21:54:00,
2013-08-01 15:59:00,82.0,51.7,29.75,SSW,192,4.0,6.0,35,0.00,,---,0.00,VWS V14.00,2013-08-01 21:59:00,
2013-08-01 16:04:00,82.7,52.3,29.75,South,185,1.0,5.0,35,0.00,,---,0.00,VWS V14.00,2013-08-01 22:04:00,
2013-08-01 16:09:00,83.0,51.0,29.76,SW,215,2.0,10.0,33,0.00,,---,0.00,VWS V14.00,2013-08-01 22:09:00,
2013-08-01 16:14:00,82.5,49.7,29.76,South,190,5.0,17.0,32,0.00,,---,0.00,VWS V14.00,2013-08-01 22:14:00,
2013-08-01 16:19:00,82.2,50.3,29.76,SSW,208,0.0,10.0,33,0.00,,---,0.00,VWS V14.00,2013-08-01 22:19:00,
2013-08-01 16:24:00,82.1,51.0,29.76,SW,222,7.0,10.0,34,0.00,,---,0.00,VWS V14.00,2013-08-01 22:24:00,
2013-08-01 16:29:00,82.2,51.8,29.76,SSW,211,4.0,11.0,35,0.00,,---,0.00,VWS V14.00,2013-08-01 22:29:00,
2013-08-01 16:35:00,82.6,51.4,29.76,SSW,209,6.0,13.0,34,0.00,,---,0.00,VWS V14.00,2013-08-01 22:35:00,
2013-08-01 16:40:00,82.5,51.3,29.75,SSW,198,9.0,14.0,34,0.00,,---,0.00,VWS V14.00,2013-08-01 22:40:00,
2013-08-01 16:45:00,82.0,51.7,29.75,South,180,0.0,3.0,35,0.00,,---,0.00,VWS V14.00,2013-08-01 22:45:00,
2013-08-01 16:50:00,81.8,52.3,29.75,SW,232,1.0,4.0,36,0.00,,---,0.00,VWS V14.00,2013-08-01 22:50:00,
2013-08-01 16:55:00,81.8,51.5,29.75,SSW,196,2.0,12.0,35,0.00,,---,0.00,VWS V14.00,2013-08-01 22:55:00,
2013-08-01 17:00:00,81.7,50.6,29.75,SSE,162,1.0,17.0,34,0.00,,---,0.00,VWS V14.00,2013-08-01 23:00:00,
2013-08-01 17:06:00,81.5,51.2,29.75,SSE,167,2.0,6.0,35,0.00,,---,0.00,VWS V14.00,2013-08-01 23:06:00,
2013-08-01 17:11:00,81.5,51.2,29.75,SSW,199,7.0,8.0,35,0.00,,---,0.00,VWS V14.00,2013-08-01 23:11:00,
2013-08-01 17:16:00,81.5,51.2,29.75,South,175,5.0,6.0,35,0.00,,---,0.00,VWS V14.00,2013-08-01 23:16:00,
2013-08-01 17:21:00,81.4,51.9,29.75,South,181,4.0,5.0,36,0.00,,---,0.00,VWS V14.00,2013-08-01 23:21:00,
2013-08-01 17:27:00,81.2,51.0,29.75,South,170,1.0,5.0,35,0.00,,---,0.00,VWS V14.00,2013-08-01 23:27:00,
2013-08-01 17:32:00,81.1,50.9,29.75,SSW,200,1.0,1.0,35,0.00,,---,0.00,VWS V14.00,2013-08-01 23:32:00,
2013-08-01 17:37:00,81.1,50.9,29.75,SSW,192,0.0,3.0,35,0.00,,---,0.00,VWS V14.00,2013-08-01 23:37:00,
2013-08-01 17:42:00,81.1,50.9,29.75,SSW,209,1.0,9.0,35,0.00,,---,0.00,VWS V14.00,2013-08-01 23:42:00,
2013-08-01 17:47:00,81.0,51.6,29.75,South,182,0.0,3.0,36,0.00,,---,0.00,VWS V14.00,2013-08-01 23:47:00,
2013-08-01 17:53:00,80.8,50.6,29.74,SSW,196,0.0,4.0,35,0.00,,---,0.00,VWS V14.00,2013-08-01 23:53:00,
2013-08-01 17:58:00,80.7,52.0,29.74,SSW,196,1.0,1.0,37,0.00,,---,0.00,VWS V14.00,2013-08-01 23:58:00,
2013-08-01 18:03:00,80.5,51.1,29.74,SSW,196,0.0,3.0,36,0.00,,---,0.00,VWS V14.00,2013-08-02 00:03:00,
2013-08-01 18:08:00,80.7,51.3,29.74,SSW,202,0.0,3.0,36,0.00,,---,0.00,VWS V14.00,2013-08-02 00:08:00,
2013-08-01 18:13:00,80.6,52.0,29.74,SSW,202,0.0,1.0,37,0.00,,---,0.00,VWS V14.00,2013-08-02 00:13:00,
2013-08-01 18:18:00,80.5,52.6,29.73,SSW,202,0.0,0.0,38,0.00,,---,0.00,VWS V14.00,2013-08-02 00:18:00,
2013-08-01 18:24:00,80.5,52.6,29.73,SSW,202,0.0,0.0,38,0.00,,---,0.00,VWS V14.00,2013-08-02 00:24:00,
2013-08-01 18:29:00,80.5,53.3,29.73,SSW,202,0.0,0.0,39,0.00,,---,0.00,VWS V14.00,2013-08-02 00:29:00,
2013-08-01 18:34:00,80.5,53.3,29.73,SSW,202,0.0,0.0,39,0.00,,---,0.00,VWS V14.00,2013-08-02 00:34:00,
2013-08-01 18:39:00,80.5,53.3,29.72,SSW,202,0.0,0.0,39,0.00,,---,0.00,VWS V14.00,2013-08-02 00:39:00,
2013-08-01 18:44:00,80.5,54.7,29.72,SSW,202,0.0,0.0,41,0.00,,---,0.00,VWS V14.00,2013-08-02 00:44:00,
2013-08-01 18:50:00,80.5,54.7,29.72,SSW,202,0.0,0.0,41,0.00,,---,0.00,VWS V14.00,2013-08-02 00:50:00,
2013-08-01 18:55:00,80.4,54.6,29.72,SSW,202,0.0,0.0,41,0.00,,---,0.00,VWS V14.00,2013-08-02 00:55:00,
2013-08-01 19:00:00,80.3,54.5,29.73,SSW,202,0.0,0.0,41,0.00,,---,0.00,VWS V14.00,2013-08-02 01:00:00,
2013-08-01 19:05:00,80.2,55.0,29.71,SSW,202,0.0,0.0,42,0.00,,---,0.00,VWS V14.00,2013-08-02 01:05:00,
2013-08-01 19:10:00,80.1,55.0,29.71,SSW,202,0.0,0.0,42,0.00,,---,0.00,VWS V14.00,2013-08-02 01:10:00,
2013-08-01 19:15:00,79.9,55.4,29.72,SSW,202,0.0,0.0,43,0.00,,---,0.00,VWS V14.00,2013-08-02 01:15:00,
2013-08-01 19:20:00,79.6,55.2,29.72,SSW,202,0.0,0.0,43,0.00,,---,0.00,VWS V14.00,2013-08-02 01:20:00,
2013-08-01 19:26:00,79.3,55.5,29.72,SSW,202,0.0,0.0,44,0.00,,---,0.00,VWS V14.00,2013-08-02 01:26:00,
2013-08-01 19:31:00,79.0,55.2,29.72,SSW,202,0.0,0.0,44,0.00,,---,0.00,VWS V14.00,2013-08-02 01:31:00,
2013-08-01 19:36:00,78.7,55.0,29.72,SSW,202,0.0,0.0,44,0.00,,---,0.00,VWS V14.00,2013-08-02 01:36:00,
2013-08-01 19:42:00,78.5,54.8,29.72,SSW,202,0.0,0.0,44,0.00,,---,0.00,VWS V14.00,2013-08-02 01:42:00,
2013-08-01 19:47:00,78.1,54.4,29.73,SSW,202,0.0,0.0,44,0.00,,---,0.00,VWS V14.00,2013-08-02 01:47:00,
2013-08-01 19:52:00,77.8,54.2,29.73,SSW,202,0.0,0.0,44,0.00,,---,0.00,VWS V14.00,2013-08-02 01:52:00,
2013-08-01 19:57:00,77.5,53.9,29.73,SSW,202,0.0,0.0,44,0.00,,---,0.00,VWS V14.00,2013-08-02 01:57:00,
2013-08-01 20:02:00,77.2,54.2,29.70,SSW,202,0.0,0.0,45,0.00,,---,0.00,VWS V14.00,2013-08-02 02:02:00,
2013-08-01 20:08:00,76.8,53.9,29.71,SSW,202,0.0,0.0,45,0.00,,---,0.00,VWS V14.00,2013-08-02 02:08:00,
2013-08-01 20:13:00,76.5,53.6,29.71,SSW,202,0.0,0.0,45,0.00,,---,0.00,VWS V14.00,2013-08-02 02:13:00,
2013-08-01 20:18:00,76.2,53.3,29.72,SSW,202,0.0,0.0,45,0.00,,---,0.00,VWS V14.00,2013-08-02 02:18:00,
2013-08-01 20:23:00,75.8,53.0,29.72,SSW,202,0.0,1.0,45,0.00,,---,0.00,VWS V14.00,2013-08-02 02:23:00,
2013-08-01 20:29:00,75.4,53.2,29.72,NW,304,1.0,1.0,46,0.00,,---,0.00,VWS V14.00,2013-08-02 02:29:00,
2013-08-01 20:34:00,75.1,53.5,29.72,WNW,298,0.0,2.0,47,0.00,,---,0.00,VWS V14.00,2013-08-02 02:34:00,
2013-08-01 20:40:00,74.9,53.9,29.73,NNE,19,2.0,5.0,48,0.00,,---,0.00,VWS V14.00,2013-08-02 02:40:00,
2013-08-01 20:45:00,75.0,53.4,29.72,NE,40,0.0,2.0,47,0.00,,---,0.00,VWS V14.00,2013-08-02 02:45:00,
2013-08-01 20:51:00,75.0,53.4,29.73,NNE,26,0.0,2.0,47,0.00,,---,0.00,VWS V14.00,2013-08-02 02:51:00,
2013-08-01 20:56:00,74.9,53.3,29.73,NE,53,0.0,1.0,47,0.00,,---,0.00,VWS V14.00,2013-08-02 02:56:00,
2013-08-01 21:01:00,74.9,53.3,29.71,NE,53,0.0,1.0,47,0.00,,---,0.00,VWS V14.00,2013-08-02 03:01:00,
2013-08-01 21:06:00,74.8,53.2,29.71,NE,53,2.0,2.0,47,0.00,,---,0.00,VWS V14.00,2013-08-02 03:06:00,
2013-08-01 21:12:00,74.6,53.1,29.71,NNW,336,1.0,1.0,47,0.00,,---,0.00,VWS V14.00,2013-08-02 03:12:00,
2013-08-01 21:19:00,74.4,52.9,29.72,NNW,336,0.0,4.0,47,0.00,,---,0.00,VWS V14.00,2013-08-02 03:19:00,
2013-08-01 21:24:00,74.3,53.4,29.72,NNW,336,0.0,4.0,48,0.00,,---,0.00,VWS V14.00,2013-08-02 03:24:00,
2013-08-01 21:30:00,74.1,53.2,29.72,NNW,344,0.0,1.0,48,0.00,,---,0.00,VWS V14.00,2013-08-02 03:30:00,
2013-08-01 21:36:00,73.8,54.0,29.73,NNW,346,1.0,1.0,50,0.00,,---,0.00,VWS V14.00,2013-08-02 03:36:00,
2013-08-01 21:44:00,73.5,53.7,29.73,NNW,338,0.0,4.0,50,0.00,,---,0.00,VWS V14.00,2013-08-02 03:44:00,
2013-08-01 21:49:00,73.2,54.0,29.73,NNW,339,0.0,0.0,51,0.00,,---,0.00,VWS V14.00,2013-08-02 03:49:00,
2013-08-01 21:54:00,73.0,53.8,29.73,NNW,339,0.0,0.0,51,0.00,,---,0.00,VWS V14.00,2013-08-02 03:54:00,
2013-08-01 21:59:00,72.8,53.6,29.73,NNW,338,0.0,1.0,51,0.00,,---,0.00,VWS V14.00,2013-08-02 03:59:00,
2013-08-01 22:01:00,72.7,53.5,29.73,NNW,339,0.0,0.0,51,0.00,,---,0.00,VWS V14.00,2013-08-02 04:01:00,
2013-08-01 22:02:00,72.7,53.5,29.71,NNW,339,0.0,0.0,51,0.00,,---,0.00,VWS V14.00,2013-08-02 04:02:00,
2013-08-01 22:05:00,72.6,54.0,29.71,NNW,338,0.0,0.0,52,0.00,,---,0.00,VWS V14.00,2013-08-02 04:05:00,
2013-08-01 22:06:00,72.5,53.9,29.72,NNW,338,0.0,0.0,52,0.00,,---,0.00,VWS V14.00,2013-08-02 04:06:00,
2013-08-01 22:11:00,72.2,53.6,29.72,NNW,338,1.0,3.0,52,0.00,,---,0.00,VWS V14.00,2013-08-02 04:11:00,
2013-08-01 22:16:00,71.9,53.9,29.72,NNW,339,0.0,1.0,53,0.00,,---,0.00,VWS V14.00,2013-08-02 04:16:00,
2013-08-01 22:17:00,71.8,53.8,29.72,NNW,339,0.0,0.0,53,0.00,,---,0.00,VWS V14.00,2013-08-02 04:17:00,
2013-08-01 22:22:00,71.6,53.6,29.72,NNW,339,0.0,0.0,53,0.00,,---,0.00,VWS V14.00,2013-08-02 04:22:00,
2013-08-01 22:27:00,71.4,53.9,29.73,NNW,339,0.0,0.0,54,0.00,,---,0.00,VWS V14.00,2013-08-02 04:27:00,
2013-08-01 22:32:00,71.3,53.8,29.72,NNW,338,0.0,0.0,54,0.00,,---,0.00,VWS V14.00,2013-08-02 04:32:00,
2013-08-01 22:38:00,71.1,53.6,29.72,NNW,339,0.0,0.0,54,0.00,,---,0.00,VWS V14.00,2013-08-02 04:38:00,
2013-08-01 22:43:00,70.8,53.3,29.72,NNW,339,0.0,0.0,54,0.00,,---,0.00,VWS V14.00,2013-08-02 04:43:00,
2013-08-01 22:48:00,70.6,53.7,29.72,NNW,339,0.0,0.0,55,0.00,,---,0.00,VWS V14.00,2013-08-02 04:48:00,
2013-08-01 22:53:00,70.4,53.5,29.72,NNW,338,0.0,2.0,55,0.00,,---,0.00,VWS V14.00,2013-08-02 04:53:00,
2013-08-01 22:58:00,70.0,53.1,29.72,NNW,339,0.0,0.0,55,0.00,,---,0.00,VWS V14.00,2013-08-02 04:58:00,
2013-08-01 23:03:00,69.7,53.3,29.68,NNW,339,0.0,0.0,56,0.00,,---,0.00,VWS V14.00,2013-08-02 05:03:00,
2013-08-01 23:08:00,69.5,53.1,29.68,NNW,339,0.0,0.0,56,0.00,,---,0.00,VWS V14.00,2013-08-02 05:08:00,
2013-08-01 23:13:00,69.3,53.0,29.69,NNW,338,0.0,0.0,56,0.00,,---,0.00,VWS V14.00,2013-08-02 05:13:00,
2013-08-01 23:18:00,69.0,53.6,29.69,NNW,339,0.0,0.0,58,0.00,,---,0.00,VWS V14.00,2013-08-02 05:18:00,
2013-08-01 23:23:00,68.8,53.4,29.69,NNW,339,0.0,0.0,58,0.00,,---,0.00,VWS V14.00,2013-08-02 05:23:00,
2013-08-01 23:28:00,68.7,53.3,29.68,NNW,338,0.0,0.0,58,0.00,,---,0.00,VWS V14.00,2013-08-02 05:28:00,
2013-08-01 23:33:00,68.5,53.2,29.68,NNW,339,0.0,0.0,58,0.00,,---,0.00,VWS V14.00,2013-08-02 05:33:00,
2013-08-01 23:38:00,68.3,53.0,29.68,NNW,339,0.0,0.0,58,0.00,,---,0.00,VWS V14.00,2013-08-02 05:38:00,
2013-08-01 23:43:00,68.1,53.2,29.68,NNW,339,0.0,0.0,59,0.00,,---,0.00,VWS V14.00,2013-08-02 05:43:00,
2013-08-01 23:48:00,67.9,53.1,29.68,NNW,338,0.0,0.0,59,0.00,,---,0.00,VWS V14.00,2013-08-02 05:48:00,
2013-08-01 23:53:00,67.6,53.2,29.68,NNW,339,0.0,0.0,60,0.00,,---,0.00,VWS V14.00,2013-08-02 05:53:00,
2013-08-01 23:58:00,67.4,53.5,29.68,NNW,339,0.0,0.0,61,0.00,,---,0.00,VWS V14.00,2013-08-02 05:58:00,